Regional Weather Roundup
Issued by NWS

Home | Current Version | Previous Version | Graphics & Text | Print | Product List | Glossary On
Versions: 1 2 3 4 5 6 7 8 9 10 11 12 13 14 15 16 17 18 19 20 21 22 23 24 25 26 27 28 29 30 31 32 33 34 35 36 37 38 39 40 41 42 43 44 45 46 47 48 49 50
252
ASUS45 KSLC 250510
RWRUT

UTAH REGIONAL WEATHER ROUNDUP
NATIONAL WEATHER SERVICE SALT LAKE CITY UT
1100 PM MDT WED AUG 24 2016

UTZ001>011-023>025-250600-

NORTHERN UTAH

CITY           SKY/WX    TMP DP  RH WIND       PRES   REMARKS
BRIGHAM CITY     N/A     68  24  19 CALM      30.12S
HILL AFB       CLEAR     64  25  22 E10       30.13F
LOGAN          NOT AVBL
OGDEN          CLEAR     64  28  25 SE3       30.12R
PROVO AIRPORT  CLEAR     63  21  20 N5        30.11F
SALT LAKE CITY PTCLDY    67  28  23 SW3       30.10R
VERNAL         CLEAR     58  28  32 CALM      30.13S
WENDOVER       CLEAR     72  23  16 NE10      30.12S
HEBER CITY     CLEAR     50  25  37 CALM      30.20R
WEST JORDAN    CLEAR     61  27  27 W5        30.13S

$$

UTZ012>022-026-027-250600-

SOUTHERN/CENTRAL UTAH

CITY           SKY/WX    TMP DP  RH WIND       PRES   REMARKS
BLANDING       PTCLDY    58  41  53 N3        30.27R
BRYCE CANYON   MOCLDY    58  40  51 W10       30.34R
CEDAR CITY     CLEAR     66  42  41 NE7       30.14R
DELTA          CLEAR     66  19  16 NE7       30.11S
MILFORD        NOT AVBL
MOAB/CYNLANDS  NOT AVBL
PRICE          PTCLDY    64  18  17 NW8       30.18R
ST GEORGE      CLEAR     82  39  21 SE9       29.96S

$$

REGIONAL REPORTS     COLORADO/ARIZONA

CITY           SKY/WX    TMP DP  RH WIND       PRES   REMARKS
CRAIG, CO      CLOUDY    58  37  45 CALM      30.19R
GRAND JUNCTION MOCLDY    67  46  47 S12       30.13S
RIFLE          PTCLDY    62  47  57 E6        30.18S
MONTROSE       LGT RAIN  62  49  62 E9        30.23F
CORTEZ         CLOUDY    57  49  74 NE7       30.21F
PAGE, AZ       PTCLDY    76  43  30 VRB3      30.09R
GRAND CANYON   CLEAR     56  45  66 CALM      30.30S
KINGMAN        NOT AVBL
FLAGSTAFF      CLOUDY    53  52  96 VRB5      30.33F

$$

REGIONAL REPORTS    NEVADA/IDAHO/WYOMING

CITY           SKY/WX    TMP DP  RH WIND       PRES   REMARKS
LAS VEGAS, NV  PTCLDY    92  30  11 SW7       29.85S
ELY            CLEAR     60  18  19 NE7       30.19R
ELKO           CLEAR     64  16  15 E5        30.15R
POCATELLO, ID  CLEAR     59  33  37 CALM      30.18S
EVANSTON, WY   CLEAR     55  15  20 SE5       30.28S
ROCK SPRINGS   NOT AVBL

$$




USA.gov is the U.S. government's official web portal to all federal, state and local government web resources and services.